User: anonymous   Login
Location: Unspecified
(0.0000°N, 0.0000°E)
Time: 01:43:12
(UTC+01:00)
Language:

ARIANE 5 R/B - Orbit

View from above orbital plane
View from above orbital plane
View from above satellite
View from above satellite

Ground track
Ground track

The orbit data is extracted from the following two-line orbital elements,

1 28886U 05041C   18052.76963220 -.00000083 +00000-0 +11828-3 0  9998
2 28886 007.9207 270.2236 7181281 280.5394 316.1264 02.24332909101335
Epoch (UTC): 21 February 2018 18:28:16
Eccentricity: 0.7181281
inclination: 7.9207°
perigee height: 570 km
apogee height: 35972 km
right ascension of ascending node: 270.2236°
argument of perigee: 280.5394°
revolutions per day: 2.24332909
mean anomaly at epoch: 316.1264°
orbit number at epoch: 10133

The dashed part of the orbit path shows where the satellite is in the earth's shadow,  

DLR